TimeCET,TemperatureF,Dew PointF,Humidity,Sea Level PressureIn,VisibilityMPH,Wind Direction,Wind SpeedMPH,Gust SpeedMPH,PrecipitationIn,Events,Conditions,WindDirDegrees,DateUTC
12:00 AM,26.6,10.4,51,29.80,-9999.0,NE,20.7,-,N/A,,Clear,50,2013-03-25 23:00:00
12:30 AM,26.6,10.4,51,29.80,-9999.0,NE,19.6,-,N/A,,Clear,50,2013-03-25 23:30:00
1:00 AM,27,7,27,29.86,12,NE,15.7,,,,Partly Cloudy,50,2013-03-26 00:00:00
1:00 AM,26.6,10.4,51,29.80,-9999.0,NE,17.3,-,N/A,,Clear,50,2013-03-26 00:00:00
1:30 AM,26.6,8.6,47,29.77,-9999.0,NE,17.3,-,N/A,,Clear,50,2013-03-26 00:30:00
2:00 AM,26.6,6.8,43,29.77,-9999.0,NE,19.6,-,N/A,,Clear,40,2013-03-26 01:00:00
2:30 AM,26.6,6.8,43,29.77,-9999.0,NE,19.6,-,N/A,,Clear,50,2013-03-26 01:30:00
3:00 AM,26.6,8.6,47,29.77,-9999.0,NE,18.4,-,N/A,,Clear,50,2013-03-26 02:00:00
3:30 AM,26.6,8.6,47,29.77,-9999.0,NE,18.4,-,N/A,,Clear,40,2013-03-26 02:30:00
4:00 AM,26.6,8.6,47,29.74,-9999.0,NE,17.3,-,N/A,,Clear,50,2013-03-26 03:00:00
4:30 AM,24.8,8.6,50,29.74,6.2,NE,17.3,-,N/A,,Mostly Cloudy,50,2013-03-26 03:30:00
5:00 AM,24.8,10.4,54,29.74,6.2,NE,21.9,-,N/A,,Mostly Cloudy,50,2013-03-26 04:00:00
5:30 AM,24.8,10.4,54,29.74,6.2,NE,18.4,-,N/A,,Overcast,50,2013-03-26 04:30:00
6:00 AM,24.8,10.4,54,29.74,6.2,NE,17.3,-,N/A,,Overcast,40,2013-03-26 05:00:00
6:30 AM,24.8,10.4,54,29.74,6.2,NE,16.1,-,N/A,,Overcast,40,2013-03-26 05:30:00
6:41 AM,26.6,10.4,51,29.74,6.2,NE,18.4,-,N/A,Snow,Light Snow,40,2013-03-26 05:41:00
7:00 AM,26,8,32,29.81,7,NE,17.9,,,Snow,Light Snow,50,2013-03-26 06:00:00
7:00 AM,24.8,10.4,54,29.74,6.2,NE,17.3,-,N/A,Snow,Light Snow,40,2013-03-26 06:00:00
7:30 AM,24.8,12.2,59,29.74,6.2,NE,17.3,-,N/A,Snow,Light Snow,40,2013-03-26 06:30:00
8:00 AM,24.8,14.0,64,29.74,5.0,NE,13.8,-,N/A,Snow,Light Snow,50,2013-03-26 07:00:00
8:30 AM,24.8,14.0,64,29.74,4.3,NE,12.7,25.3,N/A,Snow,Light Snow,40,2013-03-26 07:30:00
9:00 AM,24.8,15.8,69,29.74,3.1,NE,15.0,-,N/A,Snow,Light Snow,40,2013-03-26 08:00:00
9:30 AM,26.6,15.8,64,29.74,5.6,NE,12.7,-,N/A,Snow,Light Snow,50,2013-03-26 08:30:00
10:00 AM,26.6,15.8,64,29.74,6.2,NE,13.8,-,N/A,Snow,Light Snow,40,2013-03-26 09:00:00
10:30 AM,26.6,15.8,64,29.74,6.2,NE,15.0,-,N/A,Snow,Light Snow,40,2013-03-26 09:30:00
11:00 AM,28.4,17.6,64,29.74,6.2,NE,13.8,-,N/A,,Mostly Cloudy,40,2013-03-26 10:00:00
11:30 AM,28.4,17.6,64,29.74,6.2,NE,20.7,-,N/A,Snow,Light Snow,40,2013-03-26 10:30:00
12:00 PM,28.4,17.6,64,29.74,6.2,NE,18.4,-,N/A,Snow,Light Snow,40,2013-03-26 11:00:00
12:30 PM,30.2,15.8,55,29.74,6.2,NE,19.6,-,N/A,Snow,Light Snow,40,2013-03-26 11:30:00
1:00 PM,30,13,35,29.81,9,NE,20.1,,,Snow,Light Snow,50,2013-03-26 12:00:00
1:00 PM,30.2,15.8,55,29.74,6.2,ENE,21.9,-,N/A,Snow,Light Snow,60,2013-03-26 12:00:00
1:30 PM,30.2,17.6,60,29.74,6.2,NE,21.9,-,N/A,Snow,Light Snow,50,2013-03-26 12:30:00
2:00 PM,30.2,15.8,55,29.74,6.2,NE,21.9,-,N/A,Snow,Light Snow,50,2013-03-26 13:00:00
2:30 PM,30.2,15.8,55,29.74,6.2,NE,21.9,-,N/A,Snow,Light Snow,50,2013-03-26 13:30:00
3:00 PM,30.2,15.8,55,29.74,6.2,NE,23.0,-,N/A,Snow,Light Snow,40,2013-03-26 14:00:00
3:30 PM,30.2,15.8,55,29.74,6.2,NE,21.9,-,N/A,Snow,Light Snow,40,2013-03-26 14:30:00
4:00 PM,30.2,15.8,55,29.74,6.2,NE,21.9,-,N/A,Snow,Light Snow,50,2013-03-26 15:00:00
4:30 PM,30.2,15.8,55,29.77,6.2,NE,18.4,-,N/A,Snow,Light Snow,50,2013-03-26 15:30:00
5:00 PM,28.4,15.8,59,29.77,6.2,NE,23.0,-,N/A,Snow,Light Snow,50,2013-03-26 16:00:00
5:30 PM,28.4,17.6,64,29.77,6.2,NE,18.4,-,N/A,Snow,Light Snow,50,2013-03-26 16:30:00
6:00 PM,28.4,17.6,64,29.77,6.2,NE,20.7,-,N/A,Snow,Light Snow,50,2013-03-26 17:00:00
6:30 PM,26.6,17.6,69,29.80,6.2,NE,18.4,-,N/A,Snow,Light Snow,50,2013-03-26 17:30:00
7:00 PM,27,19,61,29.87,4,NE,15.7,,,Snow,Light Snow,40,2013-03-26 18:00:00
7:00 PM,26.6,19.4,74,29.80,3.7,NE,16.1,-,N/A,Snow,Light Snow,40,2013-03-26 18:00:00
7:30 PM,26.6,19.4,74,29.80,3.7,NE,16.1,-,N/A,Snow,Light Snow,50,2013-03-26 18:30:00
8:00 PM,26.6,19.4,74,29.80,4.3,NE,13.8,-,N/A,Snow,Light Snow,40,2013-03-26 19:00:00
8:30 PM,26.6,19.4,74,29.80,5.0,NE,12.7,-,N/A,,Overcast,40,2013-03-26 19:30:00
8:48 PM,26.6,19.4,74,29.80,5.0,NE,11.5,-,N/A,Snow,Light Snow,40,2013-03-26 19:48:00
9:00 PM,24.8,19.4,80,29.80,5.0,NE,13.8,-,N/A,Snow,Light Snow,40,2013-03-26 20:00:00
9:30 PM,26.6,17.6,69,29.80,5.0,NNE,15.0,-,N/A,Snow,Light Snow,30,2013-03-26 20:30:00
10:00 PM,24.8,19.4,80,29.80,5.0,NE,11.5,-,N/A,Snow,Light Snow,40,2013-03-26 21:00:00
10:30 PM,24.8,19.4,80,29.80,5.0,NE,12.7,-,N/A,Snow,Light Snow,40,2013-03-26 21:30:00
11:00 PM,24.8,19.4,80,29.80,4.3,NNE,9.2,-,N/A,Snow,Light Snow,30,2013-03-26 22:00:00
11:30 PM,24.8,19.4,80,29.80,4.3,NNE,8.1,-,N/A,Snow,Light Snow,30,2013-03-26 22:30:00